Location: Unspecified
(47.5370°N, 14.6980°E)
Time: 16:52:51
(UTC+00:00)

Daily predictions for brighter satellites

Satellite Brightness Start Highest point End
(mag) Time Altitude Azimuth Time Altitude Azimuth Time Altitude Azimuth
ERBS 2.4 18:57:58 10° SW 19:01:13 53° SE 19:04:28 10° ENE
Cosmos 1151 Rocket 4.2 18:57:27 10° NNW 19:01:31 45° W 19:05:35 10° SSW
Meteor 2-3 Rocket 4.1 18:58:06 10° SSW 19:03:54 78° WNW 19:09:45 10° N
Cosmos 2366 rocket 4.0 18:58:56 10° S 19:05:11 80° E 19:11:24 10° N
Cosmos 972 Rocket 4.0 19:04:08 10° NNW 19:09:13 66° ENE 19:14:04 10° SSE
Cosmos 1782 2.9 19:05:12 10° N 19:09:14 83° W 19:13:15 10° S
SL-8 Rocket 4.4 19:12:44 10° SSW 19:18:52 68° W 19:25:06 10° N
CZ-2C R/B 2.8 19:15:21 10° N 19:20:32 77° WNW 19:25:43 10° SSW
Cosmos 1743 Rocket 3.6 19:16:43 10° S 19:21:09 88° W 19:25:39 10° N
SL-4 R/B 3.6 19:21:04 10° SSE 19:23:03 13° SE 19:24:17 12° ESE
SL-8 R/B 3.8 19:21:01 10° WNW 19:25:51 72° SSW 19:30:13 13° ESE
Cosmos 614 Rocket 4.5 19:21:58 10° S 19:26:43 39° ESE 19:31:31 10° NE
SL-08 R/B 4.5 19:20:54 10° S 19:27:07 77° E 19:33:17 10° NNE
USA 186 4.4 19:28:29 10° WSW 19:28:56 10° W 19:29:23 10° W
Cosmos 1818 4.0 19:23:47 10° NNW 19:29:09 53° NE 19:33:51 13° ESE
USA 267 3.2 19:23:06 10° NE 19:29:40 74° SE 19:36:13 10° SW
IGS 5A 4.1 19:27:14 12° SE 19:30:41 39° ENE 19:34:34 10° N
Cosmos 1980 Rocket 3.4 19:26:22 10° NNW 19:31:21 30° NE 19:35:56 11° ESE
MetOp-B 4.3 19:26:21 10° SSE 19:31:37 61° ENE 19:36:55 10° N
IRIDIUM 106 4.3 19:29:37 10° S 19:34:48 74° E 19:40:02 10° N
BREEZE-M DEB (TANK) 2.0 19:33:00 10° WSW 19:35:27 83° SSE 19:40:49 10° ENE
Sich 1 3.4 19:31:35 10° SSE 19:35:48 46° E 19:40:04 10° NNE
Resurs 1-3 4.3 19:33:25 10° S 19:37:43 54° W 19:42:02 10° NNW
ERS-1 Rocket 4.0 19:36:07 14° ESE 19:39:46 32° ENE 19:44:11 10° N
Meteor 1-4 Rocket 3.7 19:37:46 10° NNE 19:40:45 26° ENE 19:42:31 17° ESE
Cosmos 1500 Rocket 4.2 19:37:08 10° SSW 19:41:22 57° WNW 19:45:39 10° N
Landsat 7 4.0 19:42:26 14° SSE 19:46:23 60° ENE 19:51:05 10° N
ATLAS 5 CENTAUR R/B 2.5 19:41:21 10° NW 19:47:02 79° SW 19:52:30 16° SSE
Cosmos 1697 Rocket 2.8 19:42:50 10° NNW 19:48:27 62° ENE 19:52:40 18° SE
Spot 2 Rocket 3.6 19:45:43 14° SSE 19:50:03 66° ENE 19:55:08 10° N
Cosmos 1812 2.7 19:46:26 10° N 19:50:18 87° W 19:53:37 13° S
Cosmos 1833 Rocket 2.9 19:44:57 10° S 19:50:18 49° ESE 19:55:43 10° NE
Cosmos 1666 Rocket 3.9 19:48:35 14° SSE 19:52:02 45° E 19:56:10 10° NNE
Cosmos 1900 4.3 19:48:54 10° SSW 19:53:51 90° E 19:58:54 10° NE
Cosmos 1190 Rocket 4.4 19:49:44 10° S 19:54:37 41° ESE 19:59:35 10° NE
Cosmos 407 Rocket 3.6 19:54:23 10° S 19:59:34 55° ESE 20:04:45 10° NNE
Shenzhou-11 Module 2.9 20:01:59 10° WSW 20:03:31 23° SSW 20:03:31 23° SSW
Cosmos 1805 Rocket 3.9 19:59:42 10° SSW 20:04:06 68° WNW 20:08:33 10° N
Lacrosse 5 3.4 20:00:46 10° NW 20:05:17 31° NNE 20:09:49 10° ENE
SPOT 1/Viking Rocket 3.6 20:01:26 18° SSE 20:05:20 74° ENE 20:10:34 10° N
USA 234 3.3 20:00:26 18° SE 20:05:29 81° SW 20:12:04 10° NW
Cosmos 1441 Rocket 3.4 20:03:04 10° SSW 20:06:53 71° WNW 20:10:40 10° N
Cosmos 2360 4.3 20:01:39 10° NNW 20:07:24 67° ENE 20:11:06 22° SE
BREEZE-M DEB (TANK) 2.2 20:05:25 10° W 20:08:08 55° N 20:09:03 25° ENE
Cosmos 1656 4.1 20:03:11 10° NW 20:08:32 56° WSW 20:12:58 15° S
Intercosmos 25 4.0 20:04:38 10° NNW 20:09:28 56° W 20:12:22 14° S
COSMOS 2406 3.4 20:12:00 10° SSW 20:17:45 77° WNW 20:23:31 10° NNE
USA 238 DEB 4.3 20:14:23 19° SSE 20:17:50 31° ESE 20:23:38 10° NE
USA 238 4.4 20:14:37 20° SSE 20:17:57 30° ESE 20:23:44 10° NE
CZ-4B DEB 4.3 20:19:00 37° SSE 20:20:09 69° ENE 20:23:29 10° N
Cosmos 1184 Rocket 3.2 20:20:55 39° ESE 20:21:21 42° E 20:24:31 10° NNE
USA 32 4.1 20:18:37 23° SSE 20:21:47 57° E 20:26:55 10° NNE
Resurs 01 Rocket 3.3 20:18:57 10° SSW 20:22:46 29° W 20:26:38 10° NW
Cosmos 389 Rocket 4.4 20:22:39 10° NW 20:25:33 26° W 20:28:19 11° SSW
Cosmos 1633 Rocket 3.0 20:23:57 19° S 20:27:09 87° ESE 20:31:37 10° N
Cosmos 1867 4.0 20:24:04 21° S 20:27:14 40° ESE 20:32:18 10° NE
SL-16 R/B 3.7 20:22:30 10° N 20:27:15 26° NE 20:30:41 15° E
Cosmos 2369 3.8 20:24:36 10° NNW 20:30:21 74° WSW 20:33:41 26° SSE
Cosmos 1140 Rocket 3.4 20:25:40 10° SSW 20:30:54 78° ESE 20:36:11 10° NNE
Terra 2.0 20:33:20 32° SE 20:35:22 60° ENE 20:40:04 10° N
Cosmos 1707 Rocket 4.4 20:31:15 10° NNW 20:35:25 45° W 20:38:22 18° SSW
Cosmos 1023 Rocket 4.5 20:31:02 10° SSW 20:36:19 88° ESE 20:41:38 10° NNE
Cosmos 1934 Rocket 4.1 20:31:20 10° S 20:37:37 82° W 20:44:02 10° N
ERBS 4.4 20:34:43 10° W 20:37:39 28° NNW 20:40:35 10° NE
Cosmos 2082 Rocket 2.1 20:33:25 11° SSW 20:38:58 70° ESE 20:44:38 10° NNE
SPOT 5 2.5 20:38:09 35° SSE 20:39:55 88° E 20:44:17 10° NNW
deb Kosmos-1763 3.9 20:39:21 49° SSE 20:40:07 65° ESE 20:43:45 10° NNE
Cosmos 2278 3.7 20:34:46 10° NNW 20:40:32 89° WSW 20:43:20 32° SSE
Okean 1 3.8 20:36:57 10° N 20:40:52 46° ENE 20:41:41 39° ESE
Cosmos 1238 Rocket 2.4 20:41:06 52° E 20:41:06 52° E 20:43:51 10° NNE
Okean 1-7 3.9 20:37:57 10° N 20:41:58 34° ENE 20:42:51 31° E
GP-B 3.5 20:39:55 10° N 20:44:19 61° W 20:47:05 22° SSW
ATLAS 5 CENTAUR R/B 3.5 20:43:01 10° NNW 20:45:15 23° NE 20:47:55 15° E
Cosmos 1470 Rocket 3.5 20:45:57 35° S 20:47:48 81° E 20:52:14 10° N
Meteor 1-20 Rocket 4.2 20:45:11 25° S 20:48:40 76° E 20:54:31 10° NNE
Cosmos 2322 Rocket 3.4 20:46:13 10° NNW 20:51:15 31° NE 20:54:08 20° E
Cosmos 676 Rocket 3.9 20:48:15 24° S 20:51:33 75° ESE 20:56:54 10° NNE
Cosmos 1437 Rocket 3.3 20:49:50 10° N 20:53:28 39° ENE 20:53:46 39° E
CENTAUR R/B 3.2 20:53:11 30° ESE 20:53:37 30° ESE 20:59:23 10° NE
Meteor 1-19 Rocket 4.2 20:48:34 10° N 20:53:57 61° ENE 20:55:54 38° SE
SAR-Lupe-2 3.8 20:53:14 10° N 20:56:48 66° WNW 20:58:00 38° SW
Cosmos 1602 3.7 20:56:41 58° SE 20:57:06 64° E 21:01:00 10° NNE
Meteor 1-14 Rocket 4.5 20:56:01 36° SSE 20:58:05 54° E 21:03:49 10° NNE
Cosmos 1862 Rocket 4.2 20:57:17 10° NNW 21:01:38 50° W 21:03:30 30° SSW
MOS 1-B Rocket 4.5 20:56:46 10° NNE 21:02:00 35° E 21:02:57 33° ESE
SL-4 R/B 3.2 20:58:20 10° SW 21:00:06 25° SW 21:00:06 25° SW
Cosmos 2360 Rocket 3.8 21:02:10 10° N 21:06:48 25° NE 21:09:55 16° E
Cosmos 921 Rocket 2.9 21:06:15 10° NNW 21:10:30 79° WSW 21:11:11 60° S
SWARM A 4.4 21:07:49 10° N 21:10:50 68° NNE 21:10:50 68° NNE
USA 267 4.1 21:06:14 10° NE 21:12:32 52° NNW 21:18:49 10° W
NOSS 3-2 (A) 3.3 21:10:18 27° SSW 21:13:27 66° SE 21:19:55 10° NE
Cosmos 2100 Rocket 4.1 21:13:43 40° SE 21:15:34 54° E 21:21:33 10° NNE
Cosmos 1980 Rocket 2.6 21:10:08 10° NW 21:15:40 55° WSW 21:17:42 36° SSW
Cosmos 405 Rocket 2.6 21:15:51 70° SW 21:16:08 76° WNW 21:19:52 10° N
NOSS 3-2 (C) 3.6 21:17:19 43° SE 21:18:05 45° ESE 21:24:10 10° NE
Meteor 1-18 Rocket 4.2 21:12:42 10° NNW 21:18:20 78° W 21:20:18 42° S
Cosmos 841 Rocket 4.4 21:13:33 10° N 21:18:27 39° ENE 21:19:58 32° E
ERS-1 Rocket 4.0 21:16:07 24° SSW 21:18:28 38° W 21:23:10 10° NNW
Cosmos 2333 Rocket 4.5 21:16:00 10° N 21:19:39 17° NE 21:23:16 10° ENE
Cosmos 1741 Rocket 4.2 21:19:30 48° SE 21:20:05 50° ESE 21:25:11 10° NNE
Cosmos 1605 Rocket 4.3 21:16:13 20° SSW 21:20:31 61° WNW 21:26:34 10° N
Cosmos 468 Rocket 4.0 21:15:17 10° NNW 21:20:38 81° ENE 21:21:59 51° SE
Cosmos 1500 3.9 21:24:16 40° ENE 21:24:16 40° ENE 21:27:10 10° NNE
Genesis I 3.6 21:20:40 10° NW 21:24:19 51° WSW 21:24:19 51° WSW
Cosmos 1954 Rocket 4.5 21:22:36 18° SW 21:26:28 60° WNW 21:31:45 10° NNE
Cosmos 540 Rocket 4.1 21:22:49 10° NNW 21:27:46 44° ENE 21:29:02 37° E
Cosmos 1933 Rocket 4.1 21:27:52 37° SW 21:29:17 54° WNW 21:33:39 10° N
ATLAS 5 CENTAUR R/B 4.4 21:27:24 10° WNW 21:31:12 17° WSW 21:34:02 13° SW
Cosmos 1697 Rocket 4.4 21:27:39 10° NW 21:31:55 23° WSW 21:34:24 17° SW
Spot 4 4.1 21:32:47 50° ESE 21:33:30 55° ENE 21:38:13 10° N
Cosmos 1833 Rocket 4.4 21:29:25 10° WSW 21:34:26 32° NW 21:39:30 10° NNE
Cosmos 2173 Rocket 3.9 21:32:39 46° SSE 21:34:28 70° E 21:40:36 10° NNE
Cosmos 1666 4.3 21:36:49 24° ENE 21:36:49 24° ENE 21:38:55 10° NNE
Cosmos 1869 Rocket 3.4 21:38:49 77° ESE 21:38:57 78° E 21:43:25 10° NNE
Cosmos 2242 Rocket 4.5 21:35:18 10° NNW 21:39:29 41° W 21:40:22 36° WSW
Meteor 2-4 Rocket 3.6 21:33:44 10° N 21:39:30 88° ENE 21:40:50 55° SSE
Cosmos 2061 Rocket 4.1 21:42:53 47° SE 21:44:14 57° E 21:50:17 10° NNE
ALOS 2 3.5 21:45:50 36° ENE 21:46:05 37° ENE 21:50:07 10° N
Cosmos 44 3.9 21:43:50 10° NNW 21:48:35 50° NE 21:49:46 41° E
Cosmos 1703 Rocket 4.2 21:44:47 10° NNW 21:48:56 44° W 21:49:25 42° WSW
Lacrosse 5 2.0 21:43:51 10° NW 21:48:57 72° NE 21:50:01 53° E
USA 234 4.4 21:47:46 24° SW 21:49:07 26° SW 21:54:25 10° WNW
Cosmos 2016 Rocket 4.0 21:50:38 51° SSE 21:52:07 66° E 21:58:26 10° NNE
Geosat 4.2 21:55:48 54° SW 21:56:21 57° WSW 22:01:20 10° NW
Cosmos 1459 Rocket 4.0 21:56:38 46° SSW 21:58:40 81° W 22:05:04 10° N
Cosmos 2221 Rocket 3.5 21:58:11 10° N 22:02:34 79° ENE 22:02:34 79° ENE
Cosmos 1864 Rocket 4.5 22:03:47 55° SSE 22:04:59 69° E 22:11:11 10° NNE
Cosmos 1802 Rocket 4.0 22:04:01 50° SSW 22:05:54 86° W 22:12:19 10° N
ATLAS 3B R/B 3.1 22:06:30 39° ESE 22:06:30 39° ESE 22:12:25 10° NE
USA 238 DEB 3.9 22:01:40 10° SW 22:08:17 67° NW 22:15:14 10° NE
USA 238 3.9 22:01:54 11° SW 22:08:23 68° NW 22:15:20 10° NE
Iridium 4 Rocket 3.6 22:08:20 50° W 22:08:39 51° W 22:12:51 10° N
Cosmos 1763 Rocket 4.0 22:05:08 10° NNW 22:10:14 46° WSW 22:10:49 44° SW
SL-16 R/B 2.2 22:06:12 10° NNW 22:11:50 65° WSW 22:12:32 59° SSW
Terra 3.8 22:12:14 16° WSW 22:13:30 18° W 22:16:45 10° NW
Cosmos 967 Rocket 4.5 22:07:43 10° NW 22:14:10 77° NE 22:15:51 51° SE
Cosmos 1733 Rocket 3.4 22:18:38 58° NE 22:18:38 58° NE 22:22:27 10° NNE
Thor Agena Rocket 3.5 22:14:25 10° NNE 22:19:30 77° WNW 22:20:09 66° SW
Meteor 1-11 Rocket 3.6 22:19:40 68° S 22:20:27 87° E 22:26:12 10° NNE
Cosmos 2082 Rocket 4.2 22:18:57 10° W 22:23:35 25° NW 22:28:15 10° N
Cosmos 2237 4.1 22:18:27 10° NNW 22:24:13 82° ENE 22:25:02 66° SE
Cosmos 2219 Rocket 3.4 22:22:01 10° NNW 22:27:13 35° NE 22:29:32 25° E
Cosmos 2233 Rocket 4.0 22:26:11 56° SE 22:27:14 65° E 22:33:31 10° NNE
SL-27 R/B 4.2 22:33:49 29° NNW 22:33:49 29° NNW 22:36:02 10° N
Lacrosse 4 Rocket 3.4 22:36:44 20° ENE 22:36:44 20° ENE 22:38:30 10° NE
Cosmos 2322 Rocket 2.5 22:30:04 10° NW 22:35:34 52° WSW 22:35:55 51° WSW
EO 1 Del DPAF 4.2 22:32:21 10° N 22:35:24 45° NW 22:35:24 45° NW
Cosmos 968 Rocket 4.4 22:39:13 34° E 22:39:13 34° E 22:43:14 10° NE
Cosmos 1536 3.6 22:43:34 49° NW 22:43:34 49° NW 22:46:51 10° N
Cosmos 1908 Rocket 4.4 22:44:01 42° ENE 22:44:01 42° ENE 22:47:30 10° NNE
Tsikada Rocket 4.0 22:37:00 10° NNW 22:43:22 70° W 22:44:33 57° SSW
CENTAUR R/B 2.9 22:40:18 28° WSW 22:43:42 64° NW 22:50:56 10° NE
COSMOS 2428 3.7 22:39:42 10° NNW 22:45:08 41° NE 22:47:13 31° E
Cosmos 2360 Rocket 2.1 22:45:42 10° NNW 22:51:21 70° WSW 22:51:40 69° SW
Cosmos 1378 Rocket 3.8 22:53:30 10° NNW 22:57:26 66° NW 22:57:26 66° NW
YAOGAN 11 4.3 23:00:08 70° NE 23:00:08 70° NE 23:04:32 10° N
Cosmos 2297 Rocket 4.4 23:03:47 11° E 23:04:10 11° E 23:05:41 10° E
Cosmos 2333 Rocket 2.4 22:59:18 10° NNW 23:05:05 67° ENE 23:06:14 54° ESE
Cosmos 1743 3.6 23:06:11 48° N 23:06:11 48° N 23:09:05 10° N
Cosmos 1271 Rocket 3.8 23:04:25 10° NNW 23:07:00 42° NNW 23:07:00 42° NNW
Cosmos 1975 Rocket 3.7 23:04:17 10° N 23:08:28 48° ENE 23:08:28 48° ENE
Cosmos 1975 3.9 23:09:46 40° NE 23:09:46 40° NE 23:12:42 10° NNE
NOSS 3-2 (C) 4.4 23:04:42 17° WSW 23:09:01 45° NW 23:15:31 10° NE
PSLV R/B 4.3 23:06:33 10° NNE 23:10:39 48° E 23:10:39 48° E
COSMOS 2487 4.2 23:14:39 32° N 23:14:39 32° N 23:16:41 10° NNE
Helios 1B rocket 3.8 23:09:40 10° NNE 23:12:31 30° ENE 23:12:31 30° ENE
Cosmos 2237 Rocket 3.8 23:09:17 10° NNW 23:14:15 30° NE 23:18:06 15° ESE
Cosmos 44 Rocket 4.3 23:09:56 10° NNW 23:14:41 44° NE 23:16:29 31° E
Cosmos 1503 Rocket 4.4 23:16:19 50° ESE 23:16:19 50° ESE 23:21:28 10° NNE
Cosmos 2084 Rocket 4.4 23:20:55 40° NW 23:21:19 41° NW 23:25:26 10° NNE
ALOS 2 4.3 23:23:14 24° WNW 23:23:14 24° WNW 23:26:09 10° NW
Cosmos 1486 Rocket 3.8 23:23:09 82° WSW 23:23:20 85° WNW 23:28:35 10° NNE
Cosmos 489 Rocket 4.4 23:18:58 10° NNW 23:25:19 81° WSW 23:26:20 64° S
BREEZE-M DEB (TANK) 4.2 23:18:15 10° W 23:25:07 46° WSW 23:25:07 46° WSW
CZ-4 R/B 4.0 23:21:39 10° NNE 23:26:37 66° ESE 23:26:37 66° ESE
Helios 1A 4.0 23:31:15 39° WNW 23:31:15 39° WNW 23:34:23 10° NNW
Lacrosse 5 3.7 23:27:18 10° WNW 23:29:10 19° W 23:29:10 19° W
Meteor 1-21 4.1 23:33:48 10° NNW 23:39:40 89° W 23:40:27 69° S
Cosmos 1842 4.2 23:36:32 10° NNW 23:39:25 45° NNW 23:39:25 45° NNW
Cosmos 1707 3.7 23:38:38 10° N 23:41:57 43° NE 23:41:57 43° NE
Cosmos 2227 Rocket 3.6 23:51:45 23° ESE 23:52:39 24° ESE 23:57:05 10° NE
